Showing default

OPS 0100 (TRANSIT 15), 2754

Orbit data source: Space-Track

OPS 0100 (TRANSIT 15), 2754 is a payload satellite owned by USN NAVAIR (US) in LEO that was launched on Fri, 14 Apr 1967 UTC via an SCOUT A launch vehicle from the Air Force Western Test Range (AFWTR). Payload-class satellites include a variety of spacecraft equipped with specific instruments for various scientific and technological missions. These include communications satellites like Starlink; space stations such as the ISS; scientific satellites like the Hubble; Earth observation satellites from companies like Planet Labs, Umbra, and HawkEye 360; GPS; miniature CubeSats for education and research; and military/defense satellites.

Loading next visibility...
Identifier
2754, 1967-034A
Orbit
LEO
Country
Flag of USUS
Related business
Manufacturer
APL
Mission
Spacecraft
Bus & Motor
TRANSIT 5, Unknown motor
Mass
~50 kg wet, ~50 kg dry
Launch date (UTC)
1967-04-14 (59 years ago)
Launch vehicle
SCOUT A
Launch site
Air Force Western Test Range (AFWTR)
Object type
Payload
Rocket body
Debris
Shape & HBR
Unknown
Radar Cross Section
Large (>1 m²)

Expand to show TLE details & history
Last TLE update: 5 hours ago

TLE from 5 hours ago
0 OPS 0100 (TRANSIT 15)
1 02754U 67034A   25291.33082557  .00000172  00000-0  22847-3 0  9996
2 02754  90.2304  29.4908 0021178 131.2361 297.5853 13.57336627893301
Epoch: 2025-10-18T07:56Z
TLE epoch observation values (Epoch: 2025-10-18T07:56:23.329Z)
Latitude
68.6787°
Longitude
-117.25706°
Altitude
1,050.105 km
Speed
7.337 km/s
True Right ascension
01h 55m 36s
True Declination
68° 33' 60"
Sunlit
Object was in full shadow at epoch
Visualization orbit readout
Latitude
Unknown
Longitude
Unknown
Altitude
Unknown
Speed
Unknown
Apparent Right ascension
Unknown
Apparent Declination
Unknown
Sunlit
N/A
Visualization observer readout
Local Sidereal Time
08:05:04
Azimuth
Unknown
Elevation
Unknown
Doppler factor
Unknown
Orbital elements
Apogee altitude
1,058.142 km
Perigee altitude
1,026.711 km
Semi-major axis
7,420.563 km
Eccentricity
0.00212
Inclination
90.2304°
RAAN
29.4908°
Arg. of periapsis
131.2361°
True anomaly
297.36994°
Mean anomaly
297.5853°
Eccentric anomaly
297.47765°
Mean motion
3.39538 °/min
Orbital period
106.03 mins
BSTAR
0.00022847
Loading maneuver chart data...
Computing Atmospheric mass density...
Loading historical data...
Loading historical data...
Loading historical data...
Loading historical data...
Loading historical data...
Loading historical data...
Loading historical data...

Documentation

Showing up to 5 results
|